Flag for U.S.A. Weather past 2 weeks in Tempe, Arizona, U.S.A.

Now
86 °F

Passing clouds.


Feels Like: 90 °F
Forecast: 87 / 104 °F
Wind: 6 mph from Southeast

Location: Phoenix Sky Harbor International Airport

Current Time: Aug 30, 2015 at 1:29:21 AM

Latest Report: Aug 30, 2015 at 12:51 AM


Visibility: 10 mi

Pressure: 29.75 "Hg

Humidity: 57%

Dew point: 69 °F

Location of TempeLocation

Historic Weather in Tempe — Graph

°F

Tempe temperature yesterday

Maximum temperature yesterday: 111 °F (at 4:51 PM)
Minimum temperature yesterday: 82 °F (at 8:51 PM)
Average temperature yesterday: 97 °F

Past Weeks' High & Low Weather Summary

 TemperatureHumidityPressure
High114 °F (Aug 15, 3:51 PM)70% (Aug 27, 4:51 PM)29.94 "Hg (Aug 27, 4:51 PM)
Low82 °F (Aug 27, 4:51 PM)11% (Aug 15, 4:51 PM)29.62 "Hg (Aug 18, 5:51 PM)
Average97 °F31%29.77 "Hg
* Reported Aug 14 11:51 PM — Aug 29 11:51 PM, Tempe, Weather by CustomWeather, © 2015

Note: Actual official high and low records may vary slightly from our data, if they occured in-between our weather recording intervals... More about our weather records

Advertising

Tempe weather history for previous 24 hours

 ConditionsComfort  
Time TempWeatherWind HumidityBarometerVisibility
11:51 PM
Sat, Aug 29
86 °FPartly cloudy.5 mph57%29.75 "Hg10 mi
10:51 PM86 °FPassing clouds.8 mph59%29.76 "Hg10 mi
9:51 PM87 °FPassing clouds.8 mph53%29.76 "Hg10 mi
8:51 PM82 °FThunderstorms. Partly cloudy.13 mph67%29.78 "Hg10 mi
8:03 PM103 °FThunderstorms. Partly cloudy.10 mph21%29.79 "Hg10 mi
7:51 PM103 °FPartly cloudy.5 mph21%29.69 "Hg10 mi
7:02 PM107 °FThunderstorms. Partly cloudy.6 mph17%29.74 "Hg10 mi
6:51 PM108 °FBroken clouds.8 mph16%29.67 "Hg10 mi
5:51 PM108 °FBroken clouds.5 mph17%29.66 "Hg10 mi
4:51 PM111 °FScattered clouds.9 mph15%29.66 "Hg10 mi
3:51 PM110 °FScattered clouds.8 mph16%29.67 "Hg10 mi
2:51 PM109 °FScattered clouds.5 mph16%29.70 "Hg10 mi
1:51 PM109 °FScattered clouds.No wind18%29.73 "Hg10 mi
12:51 PM105 °FScattered clouds.N/A20%29.76 "Hg10 mi
11:51 AM104 °FScattered clouds.7 mph22%29.79 "Hg10 mi
10:51 AM101 °FPassing clouds.7 mph25%29.81 "Hg10 mi
9:51 AM98 °FPassing clouds.9 mph28%29.82 "Hg10 mi
8:51 AM94 °FPassing clouds.9 mph31%29.81 "Hg10 mi
7:51 AM90 °FPassing clouds.8 mph34%29.80 "Hg10 mi
6:51 AM88 °FPassing clouds.7 mph35%29.78 "Hg10 mi
5:51 AM87 °FPassing clouds.6 mph37%29.76 "Hg10 mi
4:51 AM88 °FPassing clouds.7 mph42%29.75 "Hg10 mi
3:51 AM89 °FPassing clouds.6 mph41%29.73 "Hg10 mi
2:51 AM91 °FPassing clouds.3 mph38%29.72 "Hg10 mi
1:51 AM92 °FPassing clouds.6 mph44%29.71 "Hg10 mi
Weather by CustomWeather, © 2015

See weather overviewHow to use our weather pages